map of PHS home
Great Circle Mapper logo
PHS - Airport
Location
City:  Phitsanulok, Phitsanulok, Thailand
ICAO / IATA:VTPP / PHS

Details
Type:Airport (Aerodrome, Airfield)
Use:Public/Civil
Latitude:1646'59"N (16.782939)
Longitude:10016'45"E (100.279122)
Datum:WGS 1984
Elevation:154 ft (47 m)
Variation:0.73W (WMM2015 magnetic declination)
0.01 annual change
Runways:1
Longest:9843 × 148 ft (3000 × 45 m), paved

Time
Time Zone:UTC+7
Local Time:

Weather
METAR:VTPP 081200Z VRB02KT 5000 HZ FEW030 20/06 Q1015
TAF:VTPP 081700Z 0818/0918 04005KT 6000 FEW035
BECMG 0821/0823 4000 BR
BECMG 0902/0904 06005KT 7000

Related Locations
Nearby:
Farthest:SJA: 12127 mi / 19516 km
San Juan de Marcona [San Juan de Marcona Airport], ICA, PE

Find:

   beyond  
but within

Other Information
Maps:
NOTAMs:
Links:
Sources:

  
flag of Thailand   

Sectional Chart

Flight Planning
at skyvector.com

Satellite Image

Google Maps Satellite view

 

Copyright © 2004-2016 Karl L. Swartz. All rights reserved.
The Great Circle Mapper name and logo are trademarks of the Great Circle Mapper.
All other trademarks mentioned herein belong to their respective owners.
Please see credits for attibutions and further copyright information.

  Follow gcmap on Facebook Follow gcmap on Twitter Follow gcmap on Google+ GCmap on LinkedIn

hCard Microformat

Geo Microformat